Location: �perlecques
(50.8057°N, 2.1521°E)
Time: 18:54:16
(UTC+00:00)

Cosmos 2184 Rocket - Pass Details

Date: 09 April 2020
Orbit: 958 x 1003 km, 82.9° (Epoch: 24 May)

Event Time Altitude Azimuth Distance (km) Brightness Sun altitude
Rises 18:58:39 0° 350° (N) 3,712 7.5 -4.0°
Reaches altitude 10° 19:01:12 10° 351° (N) 2,753 6.8 -4.4°
Maximum altitude 19:07:32 84° 80° (E) 989 4.1 -5.3°
Drops below altitude 10° 19:13:45 10° 169° (S) 2,704 6.0 -6.3°
Sets 19:16:13 0° 170° (S) 3,641 6.7 -6.6°
